Tracking 29528 objects as of 14-Sep-2024
HD Live streaming from Space Station
objects crossing your sky now

FENGYUN 1C DEB

Track FENGYUN 1C DEB now!
10-day predictions


NORAD ID: 30448
Int'l Code: 1999-025AFK
Perigee: 793.4 km
Apogee: 823.1 km
Inclination: 98.8 °
Period: 100.9 minutes
Semi major axis: 7179 km
RCS: 0.055 m2 (small)
Launch date: May 10, 1999
Source: People's Republic of China (PRC)
Launch site: Taiyaun Space Center, China (TSC)

Note: This is SATELLITE DEBRIS
Your satellite tracking list
Your tracking list is empty




NASA's NSSDC Master Catalog

Two Line Element Set (TLE):
1 30448U 99025AFK 24257.18809247  .00024504  00000-0  99945-2 0  9996
2 30448  98.8487 334.5613 0020664 261.1378 128.3455 14.27199307908543
Source of the keplerian elements: AFSPC